www.pogodaiklimat.ru

Погода и климат >> Архив погоды >> Молдова >> Кишинев


АРХИВ ПОГОДЫ в Кишиневе

Время (UTC), дата Ветер
(напр.,м/с)
 
Видим.   Явления Облачность Т
(С)
Тd
(С)
f
(%)
Тe
(С)
Тes
(С)
Комфортность P
(гПа)
Po
(гПа)
Тmin
(С)
Tmax
(С)
R
(мм)
R24
(мм)
S
(см)
03 15.04 С 7 20 км 10/8 600 м
[Cb calv Ac trans]
+2.7 -3.0 66 -3 -3 очень
холодно
1016.9 995.8
06 15.04 С 6 20 км 8/3 600 м
[Cb calv Ac cuf Ci]
+3.6 -4.1 57 -1 -1 холодно 1017.5 996.5 +2.6
09 15.04 СВ 7 20 км 8/3 600 м
[Cu hum Ac lent Ci fib]
+6.0 -4.5 47 +2 +3 холодно 1017.9 997.0
12 15.04 С 8
{13}
20 км 5/3 600 м
[Cu hum Ci fib]
+8.7 -3.8 41 +5 +6 холодно 1016.7 996.0
15 15.04 СЗ 8
{12}
20 км 6/3 600 м
[Cu hum Ac trans Ci fib]
+10.0 -4.8 35 +7 +7 прохладно 1015.8 995.3
18 15.04 С 4 20 км 4/0
[Ac trans]
+7.5 -4.3 43 +5 +5 прохладно 1016.8 996.1 +10.6
21 15.04 С 5 20 км 4/0
[Ac trans]
+4.9 -3.4 55 +1 +1 холодно 1016.9 996.0
00 16.04 СЗ 6 20 км 8/0
[Ac trans]
+4.0 -3.3 59 -1 -1 холодно 1015.7 994.7
03 16.04 С 7
{12}
10 км слаб. ливневой дождь 10/10 600 м
[Cb calv]
+3.5 -1.6 69 -2 -2 очень
холодно
1015.0 994.0
06 16.04 СЗ 8
{13}
10 км слаб. ливневой дождь 10/10 600 м
[Cb calv]
+2.3 +0.5 88 -5 -5 очень
холодно
1014.7 993.6 +2.0 0.4
09 16.04 СЗ 6
{14}
20 км в посл. час ливневой дождь 10/10 600 м
[Cb calv]
+2.8 +0.5 85 -3 -3 очень
холодно
1014.8 993.8
12 16.04 СЗ 7 4000 м слаб. ливневой дождь 10/10 600 м
[Cb calv]
+2.9 +1.6 91 -3 -3 очень
холодно
1015.0 994.0
15 16.04 СЗ 7
{12}
10 км в посл. час ливневой дождь 10/10 600 м
[Cb calv]
+3.2 +1.7 90 -3 -3 очень
холодно
1015.1 994.1
18 16.04 СЗ 7 10 км слаб. ливневой дождь 10/10 600 м
[Cb calv]
+3.0 +2.0 93 -3 -3 очень
холодно
1015.5 994.5 +3.4 0.3
21 16.04 СЗ 4 10 км слаб. ливневой дождь 10/10 600 м
[Cb calv]
+3.9 +2.7 92 -1 -1 очень
холодно
1015.2 994.2
00 17.04 СЗ 3 10 км слаб. ливневой дождь 10/10 600 м
[Cb calv]
+4.3 +3.6 95 0 0 холодно 1014.6 993.7
03 17.04 В 1 500 м туман {ливн. осадки} ?/? +4.6 +4.0 96 +3 +3 прохладно 1014.8 993.9
06 17.04 В 2 500 м слаб. ливневой дождь {туман} туман ?/? +5.8 +5.1 95 +3 +3 прохладно 1016.0 995.2 +3.0 0.9
09 17.04 СВ 1 10 км слаб. ливневой дождь {туман} 10/10 600 м
[Cb calv]
+7.5 +6.0 90 +7 +7 прохладно 1017.8 997.1
12 17.04 СВ 1 20 км {ливн. осадки, туман} 10/10 600 м
[Cb calv]
+8.7 +4.3 74 +8 +8 прохладно 1019.4 998.7
15 17.04 СВ 2 20 км 10/10 600 м
[Cu med, cong]
+11.0 +4.0 62 +10 +10 по сезону 1020.1 999.6
18 17.04 С 2 20 км слаб. ливневой дождь 10/10 600 м
[Cb calv]
+9.6 +6.0 78 +8 +8 по сезону 1021.8 1001.1 +11.5 0.0
21 17.04 СВ 3 1000 м слаб. ливневой дождь {туман} 10/10 600 м
[Cb calv]
+9.5 +8.4 93 +7 +7 по сезону 1022.7 1002.0
00 18.04 СВ 3 1000 м слаб. ливневой дождь {туман} 10/10 600 м
[Cb calv]
+7.5 +6.1 91 +5 +5 по сезону 1024.3 1003.4
03 18.04 В 3 10 км слаб. ливневой дождь 10/10 600 м
[Cb calv]
+7.0 +5.3 89 +4 +4 по сезону 1025.1 1004.2
06 18.04 С 2 20 км {ливн. осадки} 9/3 600 м
[Cu med, cong Ac cast]
+7.9 +5.7 86 +6 +7 по сезону 1026.8 1005.9 +6.8 3
09 18.04 С 3 20 км 10/9 600 м
[Cu med, cong Ac As]
+9.7 +5.1 73 +8 +8 по сезону 1027.6 1006.8
12 18.04 СВ 3 20 км 8/5 600 м
[Cb calv Ac trans]
+12.3 +2.7 52 +11 +14 по сезону 1026.3 1005.7
15 18.04 В 4 20 км 4/4 600 м
[Cu med, cong]
+12.4 -1.2 39 +11 +12 по сезону 1025.5 1004.9
18 18.04 С 1 20 км 5/5 600 м
[Cu med, cong]
+10.6 -0.2 47 +11 +11 по сезону 1026.2 1005.5 +13.7
21 18.04 С 1 20 км 8/5 600 м
[Cu med, cong Ac trans]
+8.3 +0.5 58 +8 +8 по сезону 1025.9 1005.0
00 19.04 СЗ 2 20 км 6/3 600 м
[Cu med, cong Ac trans]
+6.5 +0.2 64 +5 +5 по сезону 1024.3 1003.3
03 19.04 штиль 0 20 км 6/6 600 м
[Cu med, cong]
+5.3 +0.5 71 +5 +5 по сезону 1022.5 1001.5
06 19.04 В 1 10 км слаб. ливневой дождь 10/10 600 м
[Cb calv]
+5.1 +3.4 89 +4 +4 прохладно 1023.4 1002.4 +3.9 5
09 19.04 В 2 20 км {ливн. осадки} 9/8 600 м
[Cb calv Ac trans]
+10.9 +2.7 57 +10 +12 по сезону 1024.1 1003.5
12 19.04 В 3 20 км в посл. час ливневой дождь 9/6 600 м
[Cu med, cong Ac trans Ci fib]
+10.6 +2.4 57 +9 +11 прохладно 1025.2 1004.5
15 19.04 СВ 1 20 км 8/5 600 м
[Cb calv Ac trans Ci fib]
+11.8 +0.3 45 +12 +13 по сезону 1024.6 1004.0
18 19.04 СЗ 5 20 км {ливн. осадки} 8/4 600 м
[Cb calv Ac trans]
+7.6 +3.1 73 +4 +4 холодно 1026.8 1005.9 +12.2 0.0
21 19.04 С 3 20 км 3/0
[Ac trans Ci fib]
+7.1 +0.8 64 +4 +4 прохладно 1027.4 1006.4
00 20.04 С 4 20 км 3/0
[Ac trans]
+5.6 +0.6 70 +2 +2 прохладно 1027.1 1006.0
03 20.04 С 4 20 км ясно +5.0 -0.8 66 +1 +1 прохладно 1026.8 1005.7
06 20.04 С 3 20 км ясно +7.8 -0.4 56 +5 +10 по сезону 1027.4 1006.5 +4.9
09 20.04 СВ 3 20 км 8/8 600 м
[Cu med, cong]
+11.4 -4.7 32 +10 +13 по сезону 1027.4 1006.7
12 20.04 С 3 20 км 9/8 600 м
[Cu med, cong Ac trans]
+13.2 -4.9 28 +12 +14 по сезону 1026.5 1006.0
15 20.04 С 2 20 км 10/5 600 м
[Cu med, cong Ac trans]
+12.8 -4.8 29 +13 +13 тепло 1025.9 1005.4
18 20.04 С 2 20 км 9/0
[Ac trans Ci fib]
+11.1 -4.6 33 +10 +10 по сезону 1026.1 1005.4 +13.8
21 20.04 СЗ 2 20 км 8/0
[Ac trans]
+10.6 -5.8 31 +10 +10 по сезону 1025.0 1004.3
00 21.04 штиль 0 20 км 5/0
[Ac trans]
+8.9 -5.0 37 +9 +9 по сезону 1024.0 1003.2
03 21.04 штиль 0 20 км 8/0
[Ac trans]
+6.2 -1.9 56 +6 +6 по сезону 1023.7 1002.7
06 21.04 штиль 0 20 км 10/0
[Ac trans Ci sp]
+9.0 +1.7 60 +9 +13 по сезону 1023.4 1002.7 +2.8
09 21.04 ЮЗ 1 20 км 10/8 600 м
[Cu med, cong Ci sp]
+13.8 -5.9 25 +15 +17 тепло 1022.9 1002.5
12 21.04 ЮВ 2 20 км 10/5 600 м
[Cu med, cong Ci]
+15.5 -5.0 24 +16 +21 тепло 1021.7 1001.4
15 21.04 Ю 1 20 км 10/3 600 м
[Cu hum Ac trans Ci]
+15.2 -5.2 24 +16 +17 тепло 1021.0 1000.7
18 21.04 Ю 4 20 км 10/6 600 м
[Sc Ci fib]
+11.6 -3.7 34 +10 +10 по сезону 1022.3 1001.7 +16.1
21 21.04 Ю 2 20 км 10/10 600 м
[Sc]
+8.3 -4.8 39 +7 +7 по сезону 1022.8 1002.0

 

Местоположение метеостанции Кишинев (Молдова): широта 47.02 долгота 28.98 высота над уровнем моря 173 м.

В архиве по умолчанию представлена погода в Кишиневе за последнюю неделю. Архивные данные за месяц целиком и за предыдущие месяцы, начиная с января 2011 года, Вы можете получить, выбрав интересующий диапазон дат из раскрывающегося списка и нажав кнопку "Ввод!".


*Определитесь, кто Вы:
робот инопланетянин человек

Внимание! Время в таблицах - всемирное. Для получения местного времени необходимо прибавить поправку, которая равна 2 ч.

Смотрите также архив погоды в соседних городах и на ближайших метеорологических станциях:

Погода в Балцате (Молдова) (5 км)
Погода в Дубоссарах (Молдова) (29 км)
Погода в Кодрах (Молдова) (46 км)
Погода в Тирасполе (Молдова) (49 км)
Погода в Бравичах (Молдова) (57 км)
Погода в Штефан Водэ (Молдова) (67 км)
Погода в Корнестах (Молдова) (76 км)
Погода в Затишье (Одесская область, Украина) (76 км)
Погода в Леове (Молдова) (80 км)
Погода в Заставе (Одесская область, Украина) (81 км)

Пояснения к столбцам:

Ветер - указаны скорость ветра в м/с - средняя за 10 мин, порывы в срок и между сроками (в фигурных скобках) и направление, откуда дует ветер: С - северный, СВ - северо-восточный, В - восточный, ЮВ - юго-восточный, Ю - южный, ЮЗ - юго-западный, З - западный, СЗ - северо-западный.
Видимость - горизонтальная дальность видимости в метрах или километрах. При видимости от 1 до 10 км при отсутствии осадков обычно наблюдается дымка, при ухудшении видимости до 1 км и менее - туман. В сухую погоду видимость может ухудшаться дымом, пылью или мглою.
Явления - указаны атмосферные явления, наблюдавшиеся в срок или в последний час перед сроком; фигурными скобками обозначены явления, наблюдавшиеся между сроками (за 1-3 часа до срока); квадратными скобками обозначены град или гололедные отложения с указанием их диаметра в мм.
Облачность - указаны через наклонную черту общая и нижняя облачность в баллах и высота нижней границы облаков в метрах; квадратными скобками обозначены формы облаков: Ci - перистые, Cs - перисто-слоистые, Cc - перисто-кучевые, Ac - высококучевые, As - высокослоистые, Sc - слоисто-кучевые, Ns - слоисто-дождевые, Cu - кучевые, Cb - кучево-дождевые. Подробнее классификацию облаков см. в Атласе облаков (PDF).
T - Температура воздуха - температура, измеренная на высоте 2 м над землей.
Td - Температура точки росы - температура, при понижении до которой содержащийся в воздухе водяной пар достигнет насыщения.
f - Относительная влажность воздуха - влажноcть воздуха, измеренная на высоте 2 м над землей.
Te - Эффективная температура - температура, которую ощущает одетый по сезону человек в тени. Характеристика душности погоды. При расчете учитывается влияние влажности воздуха и скорости ветра на теплоощущения человека.
Tes - Эффективная температура на солнце - температура, которую ощущает человек, с поправкой на солнечный нагрев. Характеристика знойности погоды. Зависит от высоты солнца над горизонтом, облачности и скорости ветра. Ночью, в пасмурную погоду, а также при ветре 12 м/с и более поправка равна нулю.
P - Атмосферное давление - приведенное к уровню моря атмосферное давление.
Po - Атмосферное давление - измеренное на уровне метеостанции атмосферное давление.
Tmin - Минимальная температура - минимум температуры воздуха на высоте 2 м над землей.
Tmax - Максимальная температура - максимум температуры воздуха на высоте 2 м над землей.
R - Количество осадков - Количество выпавших осадков за период времени, мм. При наведении курсора мыши на число - период времени, за который выпало указанное количество осадков.
R24 - Количество осадков - Количество выпавших осадков за 24 часа, мм.
S - Снежный покров - Высота снежного покрова, см. При наведении курсора мыши на число - состояние снежного покрова и степень покрытия местности в баллах.